Midland, MI

1:53 AM EST on December 14, 2017 (GMT -0500)
Barstow

Weather History for KIKW - October, 2012

Change the Weather History Date:

Friday, October 26, 2012

  Actual Average (KMBS) Record (KMBS)
Temperature  
Mean Temperature 54 °F -  
Max Temperature 70 °F 53 °F 72 °F (2000)
Min Temperature 37 °F 36 °F 27 °F (2006)
Degree Days  
Heating Degree Days 12    
Growing Degree Days 4 (Base 50)    
Moisture  
Dew Point 37 °F    
Average Humidity 72    
Maximum Humidity 95    
Minimum Humidity 47    
Precipitation  
Precipitation 0.00 in - - ()
Sea Level Pressure  
Sea Level Pressure 30.13 in    
Wind  
Wind Speed 10 mph (WNW)    
Max Wind Speed 21 mph    
Max Gust Speed 34 mph    
Visibility 10 miles    
Events Rain    
Averages and records for this station are not official NWS values.
T = Trace of Precipitation, MM = Missing Value Source: NWS Daily Summary

Daily Weather History Graph

Daily Weather History Graph

Search for Another Location

Airport or City:

Trip Planner

Search our weather history database for the weather conditions in past years. The results will help you decide how hot, cold, wet, or windy it might be!

Date:

Astronomy

Oct. 26, 2012 Rise Set
Actual Time 8:05 AM EDT 6:35 PM EDT
Civil Twilight 7:36 AM EDT 7:05 PM EDT
Nautical Twilight 7:02 AM EDT 7:38 PM EDT
Astronomical Twilight 6:29 AM EDT 8:11 PM EDT
Moon 4:54 PM EDT (10/26) 4:56 AM EDT (10/26)
Length of Visible Light 11h 28m
Length of Day
10h 29m
Waxing Gibbous, 91% of the Moon is Illuminated
Oct 26
Waxing Gibbous
Oct 29
Full
Nov 6
Last Quarter
Nov 13
New
Nov 20
First Quarter

Hourly Weather History & Observations

Time (EDT) Temp. Windchill Dew Point Humidity Pressure Visibility Wind Dir Wind Speed Gust Speed Precip Events Conditions
12:13 AM 70.7 °F - 54.7 °F 57% 29.74 in 10.0 mi SSW 15.0 mph 26.5 mph N/A   Mostly Cloudy
12:34 AM 70.7 °F - 54.9 °F 57% 29.75 in 10.0 mi SW 15.0 mph 31.1 mph N/A   Overcast
12:53 AM 67.6 °F - 57.7 °F 71% 29.78 in 10.0 mi West 20.7 mph 34.5 mph N/A   Overcast
1:13 AM 59.9 °F - 52.2 °F 76% 29.82 in 10.0 mi West 18.4 mph 29.9 mph N/A   Overcast
1:33 AM 55.4 °F - 50.0 °F 82% 29.84 in 10.0 mi West 17.3 mph 25.3 mph N/A   Overcast
1:53 AM 52.5 °F - 50.2 °F 92% 29.86 in 5.0 mi West 15.0 mph 24.2 mph N/A   Drizzle
2:13 AM 51.3 °F - 49.3 °F 93% 29.87 in 7.0 mi West 12.7 mph 20.7 mph N/A   Drizzle
2:33 AM 49.6 °F - 48.2 °F 95% 29.89 in 4.0 mi West 9.2 mph 18.4 mph N/A   Drizzle
2:53 AM 49.6 °F - 48.4 °F 95% 29.92 in 5.0 mi West 9.2 mph 18.4 mph N/A   Heavy Drizzle
3:33 AM 48.2 °F - 46.4 °F 93% 29.93 in 10.0 mi West 11.5 mph - N/A Rain Rain
3:53 AM 47.8 °F - 46.0 °F 93% 29.95 in 10.0 mi West 12.7 mph 18.4 mph N/A   Overcast
4:13 AM 47.8 °F - 45.5 °F 92% 29.97 in 10.0 mi West 12.7 mph 18.4 mph N/A Rain Light Rain
4:33 AM 47.1 °F - 45.0 °F 92% 30.00 in 10.0 mi West 10.4 mph - N/A   Overcast
4:54 AM 46.4 °F 41.9 °F 43.2 °F 88% 30.02 in 10.0 mi West 9.2 mph 18.4 mph N/A   Overcast
5:13 AM 46.0 °F 42.5 °F 43.0 °F 89% 30.00 in 10.0 mi WNW 6.9 mph 16.1 mph N/A Rain Light Rain
5:33 AM 45.1 °F 39.9 °F 42.8 °F 91% 30.00 in 10.0 mi NW 10.4 mph - N/A   Light Drizzle
5:54 AM 44.8 °F 41.6 °F 42.1 °F 90% 30.04 in 10.0 mi NW 5.8 mph - N/A   Mostly Cloudy
6:13 AM 44.6 °F 40.7 °F 41.7 °F 90% 30.05 in 10.0 mi WNW 6.9 mph - N/A   Scattered Clouds
6:33 AM 44.2 °F 41.8 °F 41.0 °F 88% 30.07 in 10.0 mi WNW 4.6 mph - N/A   Clear
6:53 AM 44.2 °F 40.3 °F 40.1 °F 85% 30.08 in 10.0 mi WNW 6.9 mph - N/A   Scattered Clouds
7:13 AM 43.7 °F 39.7 °F 39.2 °F 84% 30.09 in 10.0 mi WNW 6.9 mph - N/A   Mostly Cloudy
7:33 AM 44.6 °F 42.2 °F 39.0 °F 81% 30.11 in 10.0 mi WNW 4.6 mph - N/A   Overcast
7:53 AM 44.6 °F 41.4 °F 38.8 °F 80% 30.10 in 10.0 mi WNW 5.8 mph - N/A   Overcast
8:13 AM 44.2 °F 41.0 °F 38.8 °F 81% 30.12 in 10.0 mi WNW 5.8 mph - N/A   Overcast
8:33 AM 43.7 °F 41.1 °F 36.1 °F 75% 30.14 in 10.0 mi WNW 4.6 mph - N/A   Overcast
8:53 AM 43.7 °F 39.7 °F 36.5 °F 76% 30.15 in 10.0 mi West 6.9 mph - N/A   Overcast
9:53 AM 44.6 °F 40.2 °F 36.3 °F 73% 30.18 in 10.0 mi NNW 8.1 mph - N/A   Overcast
10:13 AM 44.6 °F 40.2 °F 36.1 °F 72% 30.18 in 10.0 mi NW 8.1 mph - N/A   Overcast
10:34 AM 44.8 °F 39.4 °F 37.0 °F 74% 30.18 in 10.0 mi West 10.4 mph - N/A   Overcast
10:53 AM 44.6 °F 39.2 °F 36.5 °F 73% 30.19 in 10.0 mi WNW 10.4 mph - N/A   Overcast
11:14 AM 45.1 °F 40.3 °F 34.5 °F 66% 30.20 in 10.0 mi West 9.2 mph 16.1 mph N/A   Overcast
11:33 AM 47.7 °F - 34.3 °F 60% 30.21 in 10.0 mi WNW 11.5 mph - N/A   Overcast
11:53 AM 48.2 °F - 34.7 °F 60% 30.21 in 10.0 mi West 4.6 mph - N/A   Overcast
12:14 PM 47.1 °F - 33.8 °F 60% 30.22 in 10.0 mi WNW 9.2 mph - N/A   Mostly Cloudy
12:33 PM 46.6 °F - 31.8 °F 56% 30.22 in 10.0 mi WNW 11.5 mph - N/A   Scattered Clouds
12:53 PM 47.8 °F - 31.6 °F 53% 30.22 in 10.0 mi WNW 11.5 mph - N/A   Clear
1:14 PM 48.4 °F - 32.7 °F 55% 30.22 in 10.0 mi West 12.7 mph - N/A   Clear
1:33 PM 48.2 °F - 32.5 °F 55% 30.22 in 10.0 mi NW 6.9 mph 16.1 mph N/A   Clear
1:53 PM 48.4 °F - 32.0 °F 53% 30.21 in 10.0 mi WNW 9.2 mph 16.1 mph N/A   Clear
2:14 PM 50.0 °F - 31.8 °F 50% 30.21 in 10.0 mi WNW 12.7 mph 16.1 mph N/A   Clear
2:33 PM 49.3 °F - 31.6 °F 51% 30.21 in 10.0 mi WNW 12.7 mph 18.4 mph N/A   Clear
2:53 PM 48.4 °F - 30.7 °F 51% 30.22 in 10.0 mi West 9.2 mph - N/A   Clear
3:13 PM 48.4 °F - 30.6 °F 50% 30.21 in 10.0 mi NNW 8.1 mph - N/A   Clear
3:33 PM 48.7 °F - 30.9 °F 50% 30.21 in 10.0 mi WNW 5.8 mph - N/A   Clear
3:54 PM 49.8 °F - 30.2 °F 47% 30.21 in 10.0 mi WNW 9.2 mph - N/A   Clear
4:13 PM 49.1 °F - 30.2 °F 48% 30.21 in 10.0 mi NNW 8.1 mph - N/A   Clear
4:33 PM 48.4 °F - 30.0 °F 49% 30.22 in 10.0 mi NW 6.9 mph - N/A   Clear
4:54 PM 48.2 °F - 29.7 °F 49% 30.22 in 10.0 mi Calm Calm - N/A   Clear
5:13 PM 47.8 °F - 30.2 °F 50% 30.22 in 10.0 mi NW 4.6 mph - N/A   Clear
5:34 PM 47.7 °F - 30.4 °F 51% 30.22 in 10.0 mi NNW 4.6 mph - N/A   Clear
5:53 PM 47.3 °F - 30.4 °F 52% 30.22 in 10.0 mi Calm Calm - N/A   Clear
6:14 PM 46.9 °F - 30.4 °F 53% 30.22 in 10.0 mi Calm Calm - N/A   Clear
6:34 PM 43.7 °F - 33.8 °F 68% 30.22 in 10.0 mi Calm Calm - N/A   Clear
6:53 PM 42.4 °F - 32.7 °F 68% 30.22 in 10.0 mi Calm Calm - N/A   Clear
7:14 PM 41.5 °F - 34.0 °F 75% 30.22 in 10.0 mi Calm Calm - N/A   Clear
7:34 PM 41.0 °F - 33.1 °F 73% 30.23 in 10.0 mi Calm Calm - N/A   Clear
7:53 PM 40.1 °F - 34.2 °F 79% 30.23 in 10.0 mi Calm Calm - N/A   Clear
8:14 PM 39.2 °F - 34.5 °F 83% 30.24 in 10.0 mi Calm Calm - N/A   Clear
8:34 PM 39.2 °F - 34.0 °F 82% 30.24 in 10.0 mi Calm Calm - N/A   Clear
8:53 PM 38.5 °F - 33.8 °F 83% 30.24 in 10.0 mi Calm Calm - N/A   Clear
9:14 PM 38.3 °F - 34.2 °F 85% 30.24 in 10.0 mi Calm Calm - N/A   Clear
9:34 PM 37.9 °F - 34.0 °F 86% 30.25 in 10.0 mi Calm Calm - N/A   Clear
9:53 PM 37.4 °F 34.9 °F 34.0 °F 87% 30.24 in 10.0 mi NNW 3.5 mph - N/A   Clear
10:14 PM 38.8 °F 36.5 °F 32.2 °F 77% 30.25 in 10.0 mi NNW 3.5 mph - N/A   Clear
10:33 PM 38.7 °F 36.3 °F 32.5 °F 79% 30.25 in 10.0 mi NNW 3.5 mph - N/A   Clear
10:54 PM 37.4 °F 34.9 °F 33.3 °F 85% 30.26 in 10.0 mi NW 3.5 mph - N/A   Clear
11:14 PM 37.9 °F 33.5 °F 31.1 °F 76% 30.26 in 10.0 mi NNW 5.8 mph - N/A   Clear
11:33 PM 37.9 °F 34.4 °F 30.4 °F 74% 30.27 in 10.0 mi NNW 4.6 mph - N/A   Clear
11:54 PM 37.4 °F 32.8 °F 30.4 °F 76% 30.26 in 10.0 mi NNW 5.8 mph - N/A   Clear